| time (UTC) | temp C | wind direction | speed KPH | gust KPH | rain 1hr cm | rain 24hr cm | rain mn cm | humidity % | barometer mb |
| 20260506004232 | 19 | 175 | 4.8 | 9.7 | 0.00 | 0.00 | 0.00 | 58 | 1009.0 |
| 20260506003231 | 19 | 184 | 1.6 | 6.4 | 0.00 | 0.00 | 0.00 | 59 | 1009.0 |
| 20260506002229 | 18 | 199 | 9.7 | 14.5 | 0.00 | 0.00 | 0.00 | 58 | 1008.5 |
| 20260506001229 | 19 | 150 | 3.2 | 6.4 | 0.00 | 0.00 | 0.00 | 58 | 1008.6 |
| 20260506000223 | 19 | 193 | 4.8 | 6.4 | 0.00 | 0.00 | 0.00 | 57 | 1008.4 |
| 20260505235224 | 20 | 178 | 3.2 | 9.7 | 0.00 | 0.00 | 0.00 | 57 | 1008.7 |
| 20260505234223 | 20 | 211 | 9.7 | 20.9 | 0.00 | 0.00 | 0.00 | 56 | 1008.8 |
| 20260505233218 | 20 | 210 | 6.4 | 8.0 | 0.00 | 0.00 | 0.00 | 56 | 1008.6 |
| 20260505232218 | 20 | 225 | 6.4 | 11.3 | 0.00 | 0.00 | 0.00 | 55 | 1008.5 |
| 20260505231214 | 20 | 227 | 8.0 | 9.7 | 0.00 | 0.00 | 0.00 | 53 | 1008.5 |
| 20260505230213 | 20 | 306 | 4.8 | 12.9 | 0.00 | 0.00 | 0.00 | 52 | 1008.3 |
| 20260505225212 | 21 | 251 | 4.8 | 9.7 | 0.00 | 0.00 | 0.00 | 51 | 1008.4 |
| 20260505224212 | 21 | 227 | 4.8 | 12.9 | 0.00 | 0.00 | 0.00 | 50 | 1008.1 |
| 20260505223211 | 21 | 213 | 12.9 | 20.9 | 0.00 | 0.00 | 0.00 | 50 | 1008.3 |
| 20260505222209 | 21 | 207 | 9.7 | 20.9 | 0.00 | 0.00 | 0.00 | 49 | 1008.0 |
| 20260505221209 | 21 | 213 | 3.2 | 16.1 | 0.00 | 0.00 | 0.00 | 49 | 1007.9 |
| 20260505220204 | 21 | 195 | 6.4 | 16.1 | 0.00 | 0.00 | 0.00 | 48 | 1007.8 |
| 20260505215159 | 21 | 205 | 9.7 | 17.7 | 0.00 | 0.00 | 0.00 | 49 | 1007.6 |
| 20260505214154 | 21 | 227 | 11.3 | 14.5 | 0.00 | 0.00 | 0.00 | 47 | 1007.6 |
| 20260505213153 | 22 | 235 | 12.9 | 29.0 | 0.00 | 0.00 | 0.00 | 45 | 1007.6 |
| 20260505212153 | 22 | 209 | 24.1 | 37.0 | 0.00 | 0.00 | 0.00 | 45 | 1007.4 |
| 20260505211153 | 22 | 221 | 11.3 | 32.2 | 0.00 | 0.00 | 0.00 | 44 | 1007.1 |
| 20260505210152 | 22 | 212 | 11.3 | 37.0 | 0.00 | 0.00 | 0.00 | 43 | 1007.1 |
| 20260505205148 | 23 | 180 | 8.0 | 14.5 | 0.00 | 0.00 | 0.00 | 45 | 1007.0 |
| 20260505204148 | 23 | 166 | 3.2 | 30.6 | 0.00 | 0.00 | 0.00 | 46 | 1007.2 |
| 20260505203148 | 22 | 171 | 6.4 | 27.4 | 0.00 | 0.00 | 0.00 | 47 | 1006.9 |
| 20260505202146 | 22 | 183 | 9.7 | 29.0 | 0.00 | 0.00 | 0.00 | 48 | 1007.1 |
| 20260505201140 | 22 | 230 | 8.0 | 20.9 | 0.00 | 0.00 | 0.00 | 49 | 1007.1 |
| 20260505200135 | 22 | 210 | 11.3 | 16.1 | 0.00 | 0.00 | 0.00 | 51 | 1007.1 |
| 20260505195134 | 22 | 165 | 9.7 | 30.6 | 0.00 | 0.00 | 0.00 | 52 | 1007.2 |
| 20260505194133 | 21 | 222 | 19.3 | 32.2 | 0.00 | 0.00 | 0.00 | 50 | 1007.2 |
| 20260505193133 | 21 | 211 | 24.1 | 29.0 | 0.00 | 0.00 | 0.00 | 49 | 1007.1 |
| 20260505192128 | 22 | 215 | 27.4 | 49.9 | 0.00 | 0.00 | 0.00 | 48 | 1006.8 |
| 20260505191124 | 22 | 210 | 19.3 | 27.4 | 0.00 | 0.00 | 0.00 | 46 | 1006.6 |
| 20260505190121 | 22 | 176 | 6.4 | 30.6 | 0.00 | 0.00 | 0.00 | 48 | 1006.7 |
| 20260505185120 | 23 | 164 | 9.7 | 22.5 | 0.00 | 0.00 | 0.00 | 46 | 1006.8 |
| 20260505184119 | 22 | 210 | 20.9 | 29.0 | 0.00 | 0.00 | 0.00 | 48 | 1007.2 |
| 20260505183114 | 22 | 191 | 8.0 | 35.4 | 0.00 | 0.00 | 0.00 | 51 | 1007.3 |
| 20260505182112 | 23 | 219 | 12.9 | 22.5 | 0.00 | 0.00 | 0.00 | 51 | 1007.8 |
| 20260505181112 | 22 | 211 | 17.7 | 33.8 | 0.00 | 0.00 | 0.00 | 50 | 1007.7 |
| 20260505180111 | 22 | 208 | 6.4 | 30.6 | 0.00 | 0.00 | 0.00 | 51 | 1007.9 |
| 20260505175109 | 21 | 208 | 9.7 | 30.6 | 0.00 | 0.00 | 0.00 | 52 | 1008.0 |
| 20260505174108 | 22 | 198 | 29.0 | 32.2 | 0.00 | 0.00 | 0.00 | 52 | 1008.1 |
| 20260505173108 | 22 | 195 | 22.5 | 25.7 | 0.00 | 0.00 | 0.00 | 51 | 1008.4 |
| 20260505172102 | 21 | 215 | 22.5 | 27.4 | 0.00 | 0.00 | 0.00 | 55 | 1008.5 |
| 20260505171100 | 22 | 176 | 9.7 | 27.4 | 0.00 | 0.00 | 0.00 | 53 | 1008.0 |
| 20260505170059 | 22 | 232 | 11.3 | 20.9 | 0.00 | 0.00 | 0.00 | 54 | 1008.0 |
| 20260505165056 | 21 | 238 | 9.7 | 37.0 | 0.00 | 0.00 | 0.00 | 57 | 1007.7 |
| 20260505164055 | 22 | 220 | 20.9 | 29.0 | 0.00 | 0.00 | 0.00 | 55 | 1008.4 |
| 20260505163050 | 21 | 225 | 29.0 | 37.0 | 0.00 | 0.00 | 0.00 | 56 | 1008.5 |
| 20260505162046 | 21 | 196 | 14.5 | 20.9 | 0.00 | 0.00 | 0.00 | 57 | 1008.9 |
| 20260505161046 | 21 | 171 | 8.0 | 16.1 | 0.00 | 0.00 | 0.00 | 57 | 1008.9 |
| 20260505153038 | 21 | 188 | 9.7 | 30.6 | 0.00 | 0.00 | 0.00 | 59 | 1009.0 |
| 20260505152035 | 21 | 191 | 11.3 | 30.6 | 0.00 | 0.00 | 0.00 | 59 | 1009.0 |
| 20260505151034 | 20 | 211 | 11.3 | 20.9 | 0.00 | 0.00 | 0.00 | 60 | 1009.2 |
| 20260505125006 | 14 | 200 | 16.1 | 25.7 | 0.00 | 0.00 | 0.00 | 81 | 1009.9 |
| 20260505124005 | 16 | 202 | 32.2 | 33.8 | 0.00 | 0.00 | 0.00 | 65 | 1009.8 |
| 20260505123004 | 16 | 165 | 6.4 | 20.9 | 0.00 | 0.00 | 0.00 | 64 | 1009.5 |
| 20260505122004 | 16 | 186 | 8.0 | 24.1 | 0.00 | 0.00 | 0.00 | 65 | 1009.6 |
| 20260505121002 | 17 | 189 | 8.0 | 27.4 | 0.00 | 0.00 | 0.00 | 64 | 1009.5 |
| 20260505115958 | 17 | 206 | 9.7 | 19.3 | 0.00 | 0.00 | 0.00 | 67 | 1009.5 |
| 20260505114958 | 16 | 208 | 17.7 | 19.3 | 0.00 | 0.00 | 0.00 | 66 | 1009.3 |
| 20260505113957 | 16 | 198 | 6.4 | 16.1 | 0.00 | 0.00 | 0.00 | 68 | 1009.3 |
| 20260505112955 | 15 | 199 | 8.0 | 19.3 | 0.00 | 0.00 | 0.00 | 70 | 1009.3 |
| 20260505111955 | 15 | 207 | 4.8 | 22.5 | 0.00 | 0.00 | 0.00 | 71 | 1009.4 |
| 20260505110952 | 15 | 160 | 8.0 | 12.9 | 0.00 | 0.00 | 0.00 | 70 | 1009.4 |
| 20260505101939 | 13 | 183 | 4.8 | 9.7 | 0.00 | 0.00 | 0.00 | 73 | 1009.0 |
| 20260505100934 | 13 | 186 | 6.4 | 19.3 | 0.00 | 0.00 | 0.00 | 72 | 1008.9 |
| 20260505095932 | 14 | 165 | 8.0 | 14.5 | 0.00 | 0.00 | 0.00 | 71 | 1008.8 |
| 20260505094931 | 15 | 196 | 12.9 | 20.9 | 0.00 | 0.00 | 0.00 | 70 | 1008.5 |
| 20260505093930 | 14 | 158 | 9.7 | 17.7 | 0.00 | 0.00 | 0.00 | 70 | 1008.4 |
| 20260505092925 | 14 | 167 | 4.8 | 17.7 | 0.00 | 0.00 | 0.00 | 71 | 1008.5 |
| 20260505091926 | 14 | 143 | 3.2 | 20.9 | 0.00 | 0.00 | 0.00 | 70 | 1008.3 |
| 20260505090921 | 14 | 199 | 8.0 | 16.1 | 0.00 | 0.00 | 0.00 | 70 | 1008.4 |
| 20260505085916 | 14 | 147 | 6.4 | 17.7 | 0.00 | 0.00 | 0.00 | 70 | 1008.7 |
| 20260505084912 | 14 | 180 | 6.4 | 12.9 | 0.00 | 0.00 | 0.00 | 70 | 1008.3 |
| 20260505083908 | 15 | 203 | 14.5 | 25.7 | 0.00 | 0.00 | 0.00 | 69 | 1008.4 |
| 20260505082907 | 15 | 191 | 11.3 | 17.7 | 0.00 | 0.00 | 0.00 | 69 | 1008.4 |
| 20260505081906 | 14 | 173 | 6.4 | 9.7 | 0.00 | 0.00 | 0.00 | 69 | 1008.4 |
| 20260505080905 | 15 | 189 | 9.7 | 11.3 | 0.00 | 0.00 | 0.00 | 68 | 1008.4 |
| 20260505075902 | 15 | 189 | 11.3 | 12.9 | 0.00 | 0.00 | 0.00 | 67 | 1008.6 |
| 20260505074857 | 15 | 169 | 4.8 | 14.5 | 0.00 | 0.00 | 0.00 | 66 | 1008.1 |
| 20260505073857 | 15 | 145 | 6.4 | 16.1 | 0.00 | 0.00 | 0.00 | 65 | 1008.4 |
| 20260505072852 | 15 | 143 | 3.2 | 12.9 | 0.00 | 0.00 | 0.00 | 66 | 1008.5 |
| 20260505071850 | 15 | 178 | 3.2 | 12.9 | 0.00 | 0.00 | 0.00 | 65 | 1008.4 |
| 20260505070850 | 15 | 159 | 6.4 | 14.5 | 0.00 | 0.00 | 0.00 | 65 | 1008.3 |
| 20260505065848 | 14 | 192 | 6.4 | 11.3 | 0.00 | 0.00 | 0.00 | 65 | 1008.5 |
| 20260505064847 | 14 | 176 | 4.8 | 11.3 | 0.00 | 0.00 | 0.00 | 65 | 1008.3 |
| 20260505063843 | 15 | 180 | 6.4 | 11.3 | 0.00 | 0.00 | 0.00 | 64 | 1008.5 |
| 20260505062841 | 15 | 199 | 4.8 | 8.0 | 0.00 | 0.00 | 0.00 | 64 | 1008.4 |
| 20260505061841 | 15 | 146 | 3.2 | 14.5 | 0.00 | 0.00 | 0.00 | 63 | 1008.6 |
| 20260505060841 | 15 | 172 | 4.8 | 12.9 | 0.00 | 0.00 | 0.00 | 62 | 1008.5 |
| 20260505055840 | 15 | 169 | 6.4 | 12.9 | 0.00 | 0.00 | 0.00 | 62 | 1008.8 |
| 20260505054839 | 15 | 188 | 8.0 | 12.9 | 0.00 | 0.00 | 0.00 | 61 | 1009.0 |
| 20260505053835 | 15 | 187 | 8.0 | 20.9 | 0.00 | 0.00 | 0.00 | 61 | 1008.9 |
| 20260505052834 | 15 | 152 | 8.0 | 20.9 | 0.00 | 0.00 | 0.00 | 61 | 1008.9 |
| 20260505051834 | 15 | 168 | 8.0 | 16.1 | 0.00 | 0.00 | 0.00 | 61 | 1008.7 |
| 20260505050829 | 15 | 166 | 6.4 | 19.3 | 0.00 | 0.00 | 0.00 | 60 | 1008.9 |
| 20260505040821 | 15 | 197 | 11.3 | 14.5 | 0.00 | 0.00 | 0.00 | 60 | 1008.6 |
| 20260505035821 | 15 | 154 | 6.4 | 19.3 | 0.00 | 0.00 | 0.00 | 59 | 1008.5 |
| 20260505034820 | 15 | 195 | 8.0 | 11.3 | 0.00 | 0.00 | 0.00 | 59 | 1008.4 |
| 20260505033820 | 15 | 149 | 11.3 | 12.9 | 0.00 | 0.00 | 0.00 | 58 | 1008.3 |
| 20260505032815 | 15 | 178 | 4.8 | 16.1 | 0.00 | 0.00 | 0.00 | 58 | 1008.3 |
| 20260505031813 | 16 | 181 | 4.8 | 20.9 | 0.00 | 0.00 | 0.00 | 57 | 1008.4 |
| 20260505030813 | 16 | 205 | 4.8 | 19.3 | 0.00 | 0.00 | 0.00 | 56 | 1008.5 |
| 20260505025810 | 16 | 176 | 11.3 | 17.7 | 0.00 | 0.00 | 0.00 | 56 | 1008.3 |
| 20260505024806 | 16 | 176 | 11.3 | 17.7 | 0.00 | 0.00 | 0.00 | 55 | 1008.5 |
| 20260505023806 | 16 | 187 | 9.7 | 22.5 | 0.00 | 0.00 | 0.00 | 55 | 1008.5 |
| 20260505022806 | 16 | 198 | 14.5 | 19.3 | 0.00 | 0.00 | 0.00 | 55 | 1008.8 |
| 20260505021806 | 16 | 155 | 3.2 | 27.4 | 0.00 | 0.00 | 0.00 | 55 | 1008.4 |
| 20260505020804 | 16 | 155 | 6.4 | 14.5 | 0.00 | 0.00 | 0.00 | 56 | 1008.5 |
| 20260505015803 | 16 | 180 | 11.3 | 17.7 | 0.00 | 0.00 | 0.00 | 55 | 1008.4 |
| 20260505014803 | 16 | 189 | 9.7 | 19.3 | 0.00 | 0.00 | 0.00 | 55 | 1008.5 |
| 20260505013802 | 16 | 176 | 6.4 | 20.9 | 0.00 | 0.00 | 0.00 | 55 | 1008.4 |
| 20260505012758 | 16 | 188 | 9.7 | 24.1 | 0.00 | 0.00 | 0.00 | 55 | 1008.5 |
| 20260505011757 | 16 | 186 | 9.7 | 12.9 | 0.00 | 0.00 | 0.00 | 54 | 1008.5 |
| 20260505010756 | 16 | 166 | 8.0 | 16.1 | 0.00 | 0.00 | 0.00 | 53 | 1008.4 |
| 20260505005754 | 16 | 152 | 6.4 | 17.7 | 0.00 | 0.00 | 0.00 | 52 | 1007.9 |
| 20260505004754 | 16 | 186 | 9.7 | 20.9 | 0.00 | 0.00 | 0.00 | 51 | 1008.0 |